Location: Castillon
(43.0896°N, 0.2156°E)
Time: 19:44:44
(UTC+00:00)

ATLAS 3B R/B - Pass Details

Date: 16 June 2021
Orbit: 1003 x 1191 km, 63.8° (Epoch: 21 July)

Event Time Altitude Azimuth Distance (km) Brightness Sun altitude
Exits shadow 21:18:02 13° 175° (S) 2,583 4.2 -13.8°
Maximum altitude 21:23:17 36° 114° (ESE) 1,543 3.1 -14.4°
Drops below altitude 10° 21:29:16 10° 50° (NE) 2,849 5.0 -15.0°
Sets 21:32:07 0° 42° (NE) 3,831 5.8 -15.3°
